ATLAS 5 CENTAUR DEB, 43967

Orbit data source: Space-Track

ATLAS 5 CENTAUR DEB, 43967 is space debris in HEO originally from a launch on Wed, 17 Sep 2014 UTC launched from the Air Force Eastern Test Range (AFETR). Debris objects in space refer to the collection of defunct objects orbiting the Earth. Examples of debris include non-operational satellites, rocket bodies, and fragments generated from explosions, collisions, or faulty payload assembly.

Loading next visibility...
Identifier
43967, 2014-055W
Orbit
HEO
Country
Flag of USUS
Related business
Flag of USUnited Launch Alliance/Lockheed Martin (US)
Manufacturer
Unknown
Mission
Spacecraft
Bus & Motor
Unknown
Mass
Unknown
Launch date (UTC)
2014-09-17 (11 years ago)
Launch vehicle
Unknown
Launch site
Air Force Eastern Test Range (AFETR)
Object type
Payload
Rocket body
Debris
Shape & HBR
Unknown shape, 1.1 m
Radar Cross Section
Medium (>0.1 m² and <1 m²)

Expand to show TLE details & history
Last TLE update: 1 day ago

TLE from 1 day ago
0 ATLAS 5 CENTAUR DEB
1 43967U 14055W   25303.26512418  .00000043  00000-0  00000-0 0  9993
2 43967  19.7930 156.7670 5090071 140.0573 271.4897  1.82857432 47799
Epoch: 2025-10-30T06:21Z
TLE epoch observation values (Epoch: 2025-10-30T06:21:46.729Z)
Latitude
-0.00003°
Longitude
22.56027°
Altitude
27,924.751 km
Speed
3.022 km/s
True Right ascension
10h 27m 19s
True Declination
0° 00' 00"
Sunlit
Object was in daylight at epoch
Visualization orbit readout
Latitude
Unknown
Longitude
Unknown
Altitude
Unknown
Speed
Unknown
Apparent Right ascension
Unknown
Apparent Declination
Unknown
Sunlit
N/A
Visualization observer readout
Local Sidereal Time
12:58:19
Azimuth
Unknown
Elevation
Unknown
Doppler factor
Unknown
Orbital elements
Apogee altitude
36,251.938 km
Perigee altitude
7,492.616 km
Semi-major axis
28,250.414 km
Eccentricity
0.50901
Inclination
19.793°
RAAN
156.767°
Arg. of periapsis
140.0573°
True anomaly
219.97574°
Mean anomaly
271.4897°
Eccentric anomaly
245.04789°
Mean motion
0.45709 °/min
Orbital period
787.58 mins
BSTAR
0
Loading maneuver chart data...
Computing Atmospheric mass density...

Documentation

Showing up to 5 results
|